Location: Newark
(51.0500°N, 12.4500°E)
Time: 06:02:18
(UTC+00:00)

Tiros 1 - Pass Details

Date: 18 February 2020
Orbit: 630 x 664 km, 48.4° (Epoch: 07 April)

Event Time Altitude Azimuth Distance (km) Brightness Sun altitude
Rises 07:44:51 0° 279° (W) 2,919 10.0 11.3°
Reaches altitude 10° 07:47:18 10° 270° (W) 2,011 9.2 11.6°
Maximum altitude 07:51:30 36° 205° (SSW) 1,012 8.4 12.1°
Drops below altitude 10° 07:55:44 10° 139° (SE) 2,015 11.9 12.7°
Sets 07:58:11 0° 131° (SE) 2,926 12.6 13.0°
